RH
32 31 29 27 24 21 19 18 18 18 19 19 19 18 17 15 14 13 12 11 11 10 10 10 10 10 11 13 15 16 17 16 16 16 17 17 17 17 17 17 18 17 17 16 16 16 16 16 16 15 15 15 15 16 15 16 16 16 18 17 20 19 25 42 47 45 31 38 60 31 5 14 20 16 12 16 18 19 17 17 18 18 19 18 23 29 55 87
36 33 29 24 21 19 18 18 18 19 19 18 17 16 14 12 11 10 10 9 9 9 8 8 8 8 9 11 13 15 17 17 17 17 17 17 17 18 18 18 19 18 18 17 16 16 16 16 17 17 16 16 16 16 15 17 17 17 18 19 20 21 39 49 35 29 21 25 42 25 10 17 20 18 14 18 21 20 21 19 17 17 17 19 21 32 64 82
38 33 26 21 19 18 18 18 19 19 18 17 15 12 11 10 9 9 8 8 7 7 6 6 6 6 7 9 12 14 16 16 17 17 17 17 18 17 18 18 18 19 18 17 16 16 16 17 17 17 17 17 17 16 17 17 16 18 19 19 21 25 37 35 19 19 22 23 27 22 19 20 19 20 17 19 21 20 24 23 21 19 15 21 23 39 78 83
38 31 23 19 18 17 18 19 19 18 16 13 12 11 10 9 9 8 8 7 6 6 6 5 5 5 6 8 10 13 14 16 16 16 17 16 17 17 17 17 17 18 18 17 16 17 17 18 18 18 18 17 17 17 17 17 18 19 18 19 23 24 25 23 20 23 24 22 23 23 22 23 21 19 19 20 21 23 28 26 27 25 17 21 21 43 84 76
36 26 20 18 17 19 19 19 17 15 13 12 11 10 10 9 9 8 7 7 6 6 5 5 5 5 6 7 9 11 13 14 14 15 16 16 16 16 16 16 16 17 18 18 17 17 17 18 18 18 18 18 18 17 18 17 18 18 17 19 22 22 20 21 22 21 21 22 23 24 24 25 21 21 22 21 24 27 33 35 34 30 22 21 26 52 83 69
30 22 18 18 18 20 19 17 16 14 12 12 11 11 11 10 9 9 8 7 6 6 7 7 7 7 7 8 9 10 12 13 13 14 14 14 14 14 15 14 15 16 17 17 17 17 17 17 18 17 17 17 16 17 18 17 17 18 18 19 20 19 19 20 20 18 19 22 24 25 24 23 22 25 24 22 26 25 29 37 38 33 22 19 26 44 61 64
24 19 18 18 20 20 18 16 14 13 13 13 13 13 13 12 11 10 9 8 7 7 8 8 8 9 9 9 10 10 11 11 12 13 13 13 13 13 13 13 14 15 16 17 17 17 16 16 15 14 14 13 14 15 15 15 17 19 18 18 18 18 19 18 19 19 19 21 24 23 22 23 25 26 23 24 26 22 23 27 32 29 21 24 26 29 37 52
21 18 18 20 21 19 17 15 14 13 13 13 14 14 13 13 13 13 11 10 8 8 8 9 10 10 10 10 10 10 10 11 11 11 11 11 12 11 12 12 13 15 16 16 16 15 14 12 11 10 10 10 11 12 13 15 16 18 18 19 17 18 18 18 19 18 18 20 21 21 22 23 24 24 23 25 25 23 25 24 24 21 22 29 24 27 35 43
18 18 20 22 20 18 16 15 14 14 14 14 14 13 13 13 13 13 13 12 10 9 8 9 10 11 11 10 10 10 10 10 10 11 11 11 11 11 11 11 13 14 14 14 12 11 9 8 8 9 9 10 10 11 13 13 15 17 17 18 18 18 17 18 18 17 18 19 19 20 22 22 22 23 23 23 23 23 24 24 24 19 20 26 24 34 39 33
18 19 22 22 19 17 16 15 15 14 14 14 13 13 13 13 13 13 14 14 14 12 10 9 10 11 11 10 10 10 9 10 10 10 10 10 10 10 11 11 11 11 10 9 8 7 7 7 7 8 9 9 10 11 12 13 15 15 16 17 17 18 17 17 17 17 18 17 19 19 18 20 20 20 23 25 21 22 24 21 22 21 23 29 37 49 42 30
19 21 23 22 19 17 16 16 16 16 15 14 14 14 14 13 14 14 14 15 15 15 13 11 10 10 11 11 10 9 9 9 10 10 10 9 10 9 9 9 8 8 8 6 7 6 6 6 6 7 8 9 10 10 11 12 13 13 15 15 15 16 16 17 16 16 16 15 17 17 18 20 18 23 27 26 22 25 27 21 24 28 33 45 56 60 44 33
20 23 25 22 19 17 17 17 17 17 16 16 15 15 15 15 15 15 16 16 17 16 16 15 13 11 10 10 11 10 9 9 8 9 9 9 9 8 8 7 7 7 7 6 7 6 6 6 6 6 6 8 9 9 10 10 11 13 12 12 14 14 13 14 14 14 15 15 15 14 18 13 16 36 31 22 25 24 24 23 25 26 35 54 62 60 50 49
22 25 26 22 19 18 18 18 19 18 18 17 17 17 17 17 17 17 18 18 18 18 18 18 16 15 13 11 11 11 10 10 9 8 8 8 8 8 7 7 7 7 7 7 7 7 7 6 6 6 6 7 7 7 9 8 10 9 10 12 10 10 13 12 11 14 12 13 15 12 22 30 44 55 28 18 26 19 22 24 24 33 51 64 58 56 53 55
24 27 27 23 19 18 18 19 20 19 19 19 18 19 19 19 20 19 20 20 20 20 20 19 18 18 16 14 12 11 11 11 11 10 9 8 7 7 7 7 7 6 7 7 7 7 7 7 7 6 5 6 6 7 7 7 9 8 9 10 6 21 36 21 6 12 12 12 14 9 26 57 78 70 34 24 27 18 21 21 25 42 55 61 57 56 49 48
26 28 28 24 20 18 18 19 20 20 20 20 19 20 20 21 22 21 22 22 22 21 21 20 19 18 18 17 15 14 12 11 11 11 10 9 8 8 7 8 7 7 7 7 8 8 8 8 7 7 7 7 5 6 7 6 7 6 11 15 12 34 61 47 17 15 23 17 12 9 25 57 75 73 58 43 32 28 30 25 26 36 50 62 62 64 62 59
28 29 28 25 21 19 18 19 20 21 21 20 21 21 21 22 23 23 23 23 24 22 21 20 19 19 18 18 17 16 14 13 12 11 11 11 11 10 8 8 7 7 7 7 8 7 8 9 8 8 7 7 7 7 7 11 16 7 11 38 46 43 58 64 38 20 24 17 8 9 28 62 69 64 64 50 36 36 40 39 29 28 54 71 62 67 73 68
29 30 29 26 22 19 18 19 20 20 21 21 21 21 22 23 24 24 24 24 24 23 22 20 18 18 17 18 17 17 16 15 14 12 12 11 11 12 11 11 10 9 8 8 8 8 9 9 9 11 8 9 9 5 10 31 51 35 19 45 65 51 51 73 61 27 15 9 16 24 25 57 73 64 67 52 37 36 37 47 41 28 42 59 62 68 68 67
31 30 28 26 22 20 18 18 19 20 20 20 22 22 22 23 24 25 25 25 25 24 23 20 19 18 18 18 16 17 17 16 16 14 13 13 12 12 11 12 11 11 11 9 10 9 10 10 11 12 10 12 8 9 32 58 76 74 56 54 61 46 37 66 75 50 35 17 35 62 34 42 77 80 80 56 29 31 33 41 48 37 31 41 53 56 59 65
32 29 27 23 19 18 18 18 19 19 20 21 21 22 23 24 24 25 25 26 26 25 23 20 19 18 18 18 15 16 17 16 17 15 15 14 12 13 12 13 13 13 13 12 14 12 12 13 12 15 15 19 14 13 33 45 50 59 62 60 67 63 42 54 65 52 52 27 26 61 34 31 73 75 77 65 26 19 30 37 45 43 36 39 39 35 50 63
33 30 26 21 17 17 17 17 18 19 20 20 22 23 24 25 25 27 27 26 26 25 24 21 19 17 16 16 15 16 15 16 17 16 17 15 14 15 12 13 13 13 13 12 14 13 15 14 13 22 25 24 22 15 15 18 20 22 25 28 41 55 54 69 72 43 38 19 17 62 51 38 64 63 71 71 30 11 23 34 40 43 44 49 47 38 46 58
32 33 30 22 16 15 16 17 18 19 20 21 23 25 26 27 27 28 27 26 26 25 23 20 18 16 15 14 14 14 14 16 16 16 17 16 16 15 13 16 14 15 16 13 15 14 14 15 16 23 22 18 18 17 15 15 18 15 14 16 19 36 54 72 75 47 29 12 19 67 66 37 40 46 48 39 19 14 19 27 32 35 39 41 46 45 40 44
32 27 26 25 21 18 17 18 19 20 22 23 25 27 29 29 29 29 29 27 26 24 23 20 17 15 14 13 12 11 13 13 14 16 17 17 19 17 17 17 14 16 15 14 17 14 13 17 16 16 16 16 16 16 17 16 18 19 18 17 22 47 65 60 50 36 25 13 21 57 64 44 38 39 31 16 16 21 17 23 26 30 39 34 34 37 28 30
38 30 23 20 20 21 21 21 23 25 26 28 30 31 31 31 32 32 30 29 28 25 22 18 14 13 12 11 10 10 11 12 13 13 14 17 18 19 19 17 18 18 15 17 16 15 32 40 28 22 18 15 15 15 17 17 18 21 22 19 26 52 67 63 53 37 27 19 18 35 45 47 44 35 24 15 18 22 19 24 24 28 38 30 23 24 21 23
31 34 32 26 23 25 26 28 30 31 33 33 34 34 34 34 34 34 32 31 29 24 19 16 12 11 10 9 9 8 9 13 13 14 20 21 17 19 19 19 19 14 16 21 13 20 46 46 32 29 24 17 16 15 14 16 17 17 20 20 30 51 55 58 62 46 38 36 26 25 25 27 29 27 29 26 19 19 19 20 21 26 31 29 27 25 24 20
24 28 32 34 34 34 35 37 38 38 38 37 37 37 37 37 36 35 30 25 27 26 21 17 13 11 11 10 9 9 9 13 13 15 21 21 18 20 20 20 21 29 47 38 13 29 47 32 26 27 20 18 19 17 16 17 17 20 23 19 23 36 35 40 47 34 30 38 37 36 31 30 37 46 58 59 44 33 26 20 19 24 26 29 32 31 28 20
28 30 34 38 42 45 45 44 44 43 41 40 40 39 37 37 34 31 25 23 35 43 37 30 23 18 16 13 14 14 13 14 17 17 15 14 16 17 20 20 20 36 59 43 15 30 37 20 23 24 17 20 18 18 20 17 18 27 34 33 28 26 22 26 29 26 32 39 36 34 37 48 60 67 70 67 56 43 36 30 21 19 20 22 27 33 36 29
42 42 45 49 51 52 51 47 47 46 44 44 43 40 37 33 28 23 21 27 42 50 47 40 30 24 22 22 22 23 25 31 39 37 27 23 20 17 22 26 33 39 36 26 24 31 27 19 22 21 17 17 16 22 25 22 24 30 37 42 41 36 27 22 19 25 41 47 37 30 33 41 52 67 70 62 58 53 49 45 33 24 20 21 24 29 36 38
62 62 62 60 58 57 55 53 52 49 47 46 44 40 31 23 19 14 17 31 44 45 41 35 31 29 29 29 28 28 34 39 44 45 40 36 30 28 29 34 58 74 48 26 30 30 30 36 33 27 23 18 24 32 29 30 32 32 37 40 42 44 36 32 30 31 39 43 39 40 43 37 39 58 63 50 51 59 62 56 44 36 30 27 27 27 33 40
59 64 66 65 62 62 59 56 54 49 47 43 38 32 21 16 13 10 24 44 52 49 42 38 37 36 35 36 37 38 41 41 40 43 44 44 41 41 42 39 53 73 59 41 42 38 38 48 45 38 33 28 31 30 24 32 36 34 42 45 40 39 36 36 36 37 44 42 37 49 62 56 51 64 70 58 52 65 79 68 48 45 40 31 29 29 33 38
57 58 62 64 63 62 59 57 55 52 48 41 31 22 14 12 8 16 40 50 45 48 50 48 42 39 42 44 43 42 42 45 45 45 46 46 44 46 50 49 50 57 55 52 54 49 42 45 49 48 46 43 40 35 31 36 35 28 35 40 35 34 35 33 32 40 49 41 33 46 60 55 49 60 74 72 64 72 87 75 51 45 43 36 33 33 34 39
56 58 61 63 61 60 59 57 55 52 48 40 29 18 12 12 12 25 46 48 47 50 47 42 37 36 40 38 41 47 44 40 35 31 39 44 44 45 46 49 55 56 52 55 60 57 52 52 50 46 46 47 45 41 40 40 40 35 32 31 34 43 47 43 46 53 50 42 44 52 52 44 39 48 62 69 73 81 86 75 52 40 39 40 40 39 37 38
53 54 55 57 58 60 60 58 55 52 47 36 25 16 12 18 24 28 35 40 46 45 36 36 36 36 33 26 34 41 34 32 30 25 31 41 48 55 56 58 68 74 73 80 84 78 76 76 70 62 52 45 43 42 41 38 34 35 35 34 41 61 75 75 76 78 69 65 73 72 63 53 43 43 51 55 59 61 62 60 47 36 38 39 38 40 41 41
58 55 54 56 61 64 64 62 59 54 44 29 19 13 12 20 25 31 41 45 45 43 43 44 39 33 25 25 39 34 14 19 33 34 32 35 42 50 56 58 60 68 74 81 89 92 95 93 88 80 57 35 28 32 46 55 47 39 38 38 47 71 92 91 83 85 85 82 86 83 76 69 58 53 54 47 43 42 40 42 39 35 35 30 27 31 35 39
65 63 63 66 69 69 68 66 61 52 39 23 14 12 14 17 17 22 35 42 41 42 44 37 29 25 19 25 44 39 23 22 25 26 29 30 32 33 40 45 40 40 44 45 58 78 91 93 90 86 71 49 32 26 35 49 52 47 45 49 58 72 84 86 87 94 95 89 89 86 79 74 68 67 66 58 52 54 50 44 39 35 29 23 24 27 28 33
59 63 66 70 71 70 69 65 56 46 32 19 13 12 14 17 17 19 26 35 42 39 31 21 16 21 24 29 33 24 20 27 23 21 27 30 33 36 40 46 43 35 29 27 36 47 54 65 72 68 64 51 35 28 19 15 28 37 35 41 54 65 69 69 78 84 79 79 86 82 73 70 67 62 62 60 55 54 53 50 45 41 37 33 33 36 35 33
38 45 51 56 58 56 55 50 43 34 24 16 13 14 16 20 24 30 32 35 40 35 26 22 16 16 25 36 40 26 13 18 20 19 24 26 26 32 37 42 43 35 24 21 30 36 39 53 58 43 36 28 16 15 8 5 23 30 27 37 53 66 65 55 58 59 51 54 60 57 50 50 57 59 56 56 56 53 47 45 45 44 44 44 40 40 38 33
21 25 31 36 39 39 38 35 30 26 21 17 16 16 18 20 21 22 23 22 26 24 18 23 27 26 30 41 52 47 27 18 16 13 21 30 26 23 25 28 29 27 21 14 18 26 28 42 52 40 35 33 20 13 7 5 11 13 27 50 57 58 51 40 43 46 43 41 43 48 46 42 58 77 76 64 58 57 51 43 43 45 46 48 48 46 45 44
11 14 18 22 25 28 28 27 25 23 21 20 21 19 18 20 20 18 19 17 16 17 12 17 30 36 39 43 49 55 44 28 24 22 25 33 30 23 22 21 20 21 20 15 17 21 19 26 41 41 36 35 29 21 11 7 6 2 15 32 38 46 50 46 46 45 44 42 39 49 54 51 66 88 91 74 58 57 61 56 49 47 47 49 52 53 55 60
9 9 10 12 17 20 21 22 23 21 22 24 25 24 23 22 20 17 19 18 13 15 14 15 24 29 32 34 35 46 47 34 32 34 32 35 36 30 28 24 18 16 17 18 21 23 21 21 30 39 36 28 29 29 18 18 23 18 12 10 13 27 37 44 48 43 42 46 46 51 57 71 89 92 83 78 72 68 70 71 62 54 53 53 56 59 61 68
9 9 8 9 11 13 16 18 19 19 21 24 24 27 31 31 24 19 20 20 15 14 16 16 20 22 23 25 25 32 38 33 30 30 30 37 39 32 29 26 17 12 12 14 15 15 16 14 15 30 34 24 29 36 29 33 46 46 41 34 27 27 34 41 42 37 36 40 46 47 51 75 96 85 72 81 92 88 77 72 66 59 57 55 57 65 68 73
7 7 7 9 10 10 12 14 17 19 19 23 23 23 28 31 28 25 24 22 17 15 17 17 20 22 22 23 25 29 29 24 22 23 24 33 39 30 21 20 19 15 11 11 12 10 11 11 9 17 24 29 42 44 29 28 38 45 51 50 41 45 56 51 40 43 50 49 54 58 58 71 76 68 73 85 90 90 82 75 69 65 65 60 56 62 68 72
7 7 6 8 8 9 10 10 14 17 18 23 24 24 29 33 31 28 24 22 19 15 16 17 18 20 21 22 26 29 27 21 21 24 22 26 38 38 25 19 19 16 13 13 12 11 11 12 12 13 14 22 35 33 21 18 21 24 29 29 26 36 50 45 34 42 49 45 53 60 56 59 58 56 72 78 69 68 70 68 64 60 63 64 57 54 56 61
6 7 6 7 7 7 8 9 11 13 16 23 26 26 30 33 30 27 23 20 17 14 15 17 16 17 16 17 20 21 22 22 21 24 23 23 31 34 25 18 16 13 13 13 11 12 15 15 13 11 10 11 14 12 9 9 10 11 10 9 9 13 21 24 19 22 27 28 40 47 43 49 52 54 67 71 64 66 68 65 59 52 51 53 50 48 49 54
10 8 6 6 7 8 7 8 9 8 12 19 23 24 23 22 21 21 20 18 17 16 16 16 17 17 17 16 17 16 18 20 18 19 21 21 23 25 21 17 14 11 12 13 11 14 20 22 18 13 12 11 8 12 16 14 12 12 11 11 8 5 10 19 21 24 24 22 27 32 36 49 59 65 77 79 72 72 73 68 63 58 55 53 46 40 41 47
19 16 12 8 6 7 7 8 9 11 14 16 19 22 20 17 16 16 16 16 17 17 16 17 17 16 16 16 15 16 16 17 17 17 17 17 19 20 18 15 14 12 12 13 12 12 14 17 15 13 14 11 11 27 42 42 36 29 28 32 23 12 18 27 28 29 27 22 22 22 24 40 52 55 62 64 61 64 64 60 62 60 53 54 53 46 38 36
26 22 20 17 14 10 7 6 8 12 17 17 17 17 17 15 14 15 16 15 15 15 14 15 15 14 16 15 14 14 14 14 15 15 14 14 15 16 15 13 11 11 11 11 12 11 11 12 12 11 12 9 13 29 40 39 38 33 31 38 37 32 35 30 19 17 19 18 21 24 24 33 41 44 50 57 63 72 71 68 77 74 55 48 53 51 41 35
45 36 28 23 20 18 16 12 9 7 9 12 12 10 10 11 12 12 12 12 11 11 12 11 11 12 11 11 11 11 11 12 11 11 13 11 10 18 23 20 16 15 13 11 11 11 10 10 10 10 11 10 9 15 18 17 19 20 19 23 32 40 41 31 17 15 20 18 14 20 29 36 44 59 76 85 89 92 86 80 88 89 75 63 59 56 49 43
62 56 49 38 29 24 22 20 18 14 11 10 9 8 8 9 10 9 8 11 10 8 9 9 8 9 8 8 9 7 8 11 10 15 26 22 11 13 18 19 20 18 16 15 13 11 13 13 12 14 21 27 26 23 23 22 20 23 23 17 17 23 25 23 18 18 30 36 26 21 26 28 32 47 69 86 92 88 83 85 92 92 85 76 70 69 64 57
71 68 66 61 52 42 33 24 20 19 19 18 14 13 11 9 11 10 9 12 14 10 9 9 9 9 8 7 7 8 16 23 24 34 50 51 38 31 32 40 45 39 32 26 18 16 19 17 15 17 22 29 34 33 36 39 31 25 23 16 12 16 18 21 22 24 38 51 50 48 44 35 31 36 46 60 67 63 63 75 86 90 91 86 78 79 77 67
75 73 71 70 68 64 57 46 33 22 20 24 24 22 21 18 18 18 15 16 17 17 17 18 20 20 16 14 14 16 24 28 28 34 43 49 52 49 45 51 59 61 56 45 39 43 45 33 27 31 30 26 27 29 35 43 39 30 25 20 18 21 22 24 27 32 40 44 50 60 57 44 42 44 44 49 53 52 53 61 68 75 83 83 78 83 83 72
66 68 69 70 71 71 70 67 61 47 35 31 26 20 20 23 24 25 25 24 24 26 26 27 31 33 33 36 34 28 25 25 24 25 25 29 39 45 44 44 48 58 61 54 52 62 66 57 49 50 48 39 34 38 44 45 36 27 25 23 23 27 33 38 40 41 44 43 47 55 50 42 46 49 46 47 50 51 54 61 66 68 72 70 68 79 83 72
47 49 53 57 61 66 69 73 79 77 67 56 45 32 23 21 20 20 22 23 24 25 26 28 32 35 41 53 54 44 39 39 38 37 37 36 36 38 41 41 42 49 57 62 66 70 74 75 72 68 59 47 45 51 53 47 36 28 27 32 40 40 35 37 38 37 40 44 46 46 42 43 51 48 42 48 53 53 55 61 66 72 81 79 75 82 86 77
Wind_Speed
19 19 19 19 19 19 19 18 18 18 19 19 20 21 21 21 20 20 20 20 20 20 21 21 21 22 23 23 23 23 23 23 23 23 23 22 22 21 20 20 19 18 18 18 18 18 18 18 18 18 19 19 19 21 20 20 21 21 23 24 24 25 22 24 27 28 31 27 25 37 35 24 27 31 30 29 29 31 30 31 34 33 34 36 33 27 24 27
19 19 19 19 19 19 19 18 19 19 20 20 20 20 20 20 20 20 20 20 20 20 20 20 21 21 22 23 23 23 23 23 23 23 23 23 22 22 21 20 20 20 19 19 19 19 19 18 18 18 19 20 20 21 20 20 21 21 23 24 25 24 21 29 36 34 34 32 32 38 33 26 28 30 30 28 29 31 29 31 33 34 36 34 30 27 26 28
20 20 19 19 19 19 19 19 19 20 20 20 20 20 19 19 19 19 19 19 19 19 19 19 20 20 21 22 22 22 23 23 23 23 23 22 22 22 22 21 21 21 20 20 19 20 19 19 19 19 20 20 21 21 20 21 21 21 24 24 24 25 29 36 36 32 31 33 35 37 33 28 29 29 29 28 30 30 28 30 33 35 35 31 28 28 30 29
20 20 19 19 19 19 19 19 19 19 19 19 18 18 18 18 18 18 18 18 18 18 18 18 18 19 20 21 21 21 22 22 22 23 22 22 22 22 22 22 22 22 21 21 20 20 20 20 20 20 20 21 22 21 22 22 20 23 24 23 25 29 33 34 32 30 32 33 34 34 31 28 29 28 27 29 30 30 29 31 32 34 35 31 29 29 30 29
20 19 19 19 19 19 19 19 19 18 18 17 17 16 16 16 16 16 16 15 16 16 16 16 16 17 18 19 20 20 21 22 21 21 22 22 22 22 22 23 23 23 22 21 21 21 21 21 21 21 21 22 23 21 23 24 21 24 23 21 26 30 30 30 31 31 31 32 30 31 30 29 29 25 26 28 28 30 31 31 31 34 35 31 29 29 30 29
20 19 19 19 19 19 19 18 17 17 16 16 15 15 14 14 14 14 14 13 14 14 14 14 15 15 16 17 19 19 20 21 20 20 21 21 22 22 22 23 23 23 22 22 22 22 22 22 22 22 22 23 24 22 25 25 21 23 23 22 26 27 27 28 29 29 28 29 29 30 30 29 26 24 27 27 26 31 32 27 26 31 33 30 30 31 31 29
19 19 18 19 19 18 18 17 16 16 15 15 14 14 13 12 12 12 12 12 12 12 12 12 13 14 14 16 17 18 19 20 19 19 20 20 21 21 22 22 22 22 22 22 22 22 22 22 23 23 22 24 24 24 26 23 20 22 24 25 26 25 25 26 27 27 26 26 28 29 29 27 25 25 28 25 28 31 30 27 26 30 30 29 32 32 31 30
19 18 18 18 18 18 17 16 16 15 15 15 14 13 13 12 12 11 11 11 11 11 11 11 12 12 13 14 15 17 18 18 19 19 19 19 20 20 20 21 21 21 21 22 22 22 22 22 22 22 22 24 24 23 24 21 22 25 26 26 25 24 25 26 26 26 25 25 27 27 27 27 25 26 26 26 29 28 27 28 29 32 30 27 30 31 31 30
18 18 18 18 17 17 16 16 16 15 15 15 14 13 13 13 12 12 11 11 10 10 11 11 11 11 12 13 14 16 16 17 17 18 18 18 18 18 18 19 19 20 20 20 21 21 22 21 22 22 22 23 22 22 23 22 25 26 26 26 25 24 26 27 27 26 24 25 26 26 26 27 26 25 26 28 29 26 27 28 30 33 30 28 29 31 31 28
18 18 18 17 16 16 16 16 16 15 15 15 14 14 13 13 13 12 12 11 10 10 10 10 11 11 12 13 13 14 15 16 16 16 16 16 16 16 17 17 17 18 18 19 19 19 20 20 21 21 22 23 22 23 23 23 26 24 23 26 26 26 28 28 27 26 25 26 26 26 26 26 25 23 25 28 27 26 27 28 30 29 27 27 28 30 29 27
18 18 17 17 16 16 16 16 15 15 15 15 14 14 14 13 13 12 12 11 11 10 10 10 10 11 12 12 13 13 13 15 15 15 15 15 15 15 15 15 16 16 16 17 17 17 18 18 19 20 22 22 22 24 23 24 26 24 24 26 26 27 28 28 28 27 27 27 27 26 26 27 23 22 27 27 24 24 23 27 29 26 25 26 27 28 25 27
18 18 17 17 17 17 17 16 15 15 15 15 14 14 14 13 13 13 12 12 11 11 11 11 11 11 12 13 13 13 13 14 14 14 15 15 14 14 14 14 15 15 15 15 15 16 16 17 18 19 20 20 21 23 23 25 25 25 26 26 26 27 28 28 28 28 26 27 29 26 25 26 20 20 29 26 23 24 21 24 27 24 24 25 27 26 23 26
18 18 17 17 17 17 17 16 15 15 15 14 14 14 14 13 13 13 12 12 12 12 12 12 12 12 12 12 13 13 14 14 14 14 14 15 14 14 14 14 14 15 15 15 15 15 15 16 16 17 18 18 21 21 21 23 23 25 24 23 25 24 26 29 28 26 26 28 29 24 20 18 15 19 28 26 24 25 22 24 26 24 23 24 25 24 22 24
18 18 17 17 18 18 18 17 16 16 15 15 14 14 14 13 13 13 13 13 12 13 13 13 13 13 13 13 13 13 13 14 15 15 15 15 15 14 14 14 15 15 15 16 15 14 13 13 14 15 16 17 18 18 19 20 20 22 20 21 22 14 20 29 27 24 25 29 28 21 15 11 15 22 25 24 25 24 23 24 25 24 23 22 23 23 23 24
18 18 18 18 18 19 19 18 17 17 16 15 14 14 14 14 14 14 14 14 13 14 14 14 14 14 15 14 14 13 13 14 14 15 15 15 15 15 15 14 15 15 16 16 15 14 12 12 13 14 14 15 16 15 17 17 17 18 16 17 14 8 18 29 25 21 22 28 27 19 13 10 18 26 22 19 23 23 22 25 25 23 22 22 22 24 25 25
18 18 18 18 19 20 20 19 19 18 17 16 15 15 15 14 15 14 15 14 14 15 14 15 14 15 16 15 15 14 14 14 14 15 15 16 15 15 15 15 16 15 16 16 15 14 12 12 12 13 13 13 14 13 13 12 13 16 12 11 9 11 17 24 21 20 22 26 23 17 14 10 19 31 26 20 21 24 22 24 27 24 23 24 22 24 26 26
18 19 19 19 19 20 20 20 20 19 18 17 16 16 15 15 15 15 15 15 15 15 15 15 15 16 16 15 16 15 15 15 15 15 15 15 15 16 16 15 16 15 16 16 15 14 13 13 12 12 12 12 12 11 8 6 8 13 11 12 12 15 14 15 14 17 22 24 18 15 20 18 20 29 27 21 20 24 24 24 27 26 26 25 25 27 25 25
18 19 19 19 19 20 21 21 20 20 19 18 17 17 16 16 16 16 16 16 16 16 16 16 15 16 16 15 16 16 15 16 15 15 15 15 15 15 15 15 15 15 15 16 15 15 14 13 12 12 12 11 12 9 6 8 9 9 12 14 12 15 18 11 10 14 17 19 15 14 21 23 19 18 17 18 19 21 23 25 27 27 28 27 29 30 24 25
18 18 18 19 20 20 21 21 21 20 20 19 18 17 17 17 17 17 17 17 17 17 17 16 16 17 16 15 16 16 16 16 16 16 16 15 15 15 15 15 15 15 15 15 15 16 15 14 13 12 12 13 13 12 11 12 12 9 11 13 10 11 13 10 15 20 17 15 17 16 18 22 18 17 16 18 20 22 23 26 27 27 28 28 30 32 28 27
18 18 18 19 19 20 20 21 21 20 20 19 19 18 18 17 17 18 17 17 18 17 17 17 17 17 17 16 17 17 17 16 16 17 16 16 16 15 15 15 15 15 15 16 16 16 16 16 14 14 16 15 13 14 14 13 12 11 10 11 12 11 10 11 18 23 18 16 16 14 15 21 21 21 19 17 19 23 24 26 27 27 29 29 31 33 32 30
18 18 18 18 19 19 20 20 20 20 19 19 19 18 18 18 18 18 18 18 18 18 18 18 18 18 18 18 18 18 17 17 18 18 17 17 16 16 16 15 15 15 15 16 16 17 17 16 17 19 19 17 15 15 15 13 13 13 11 11 13 11 12 15 17 16 15 16 15 12 15 20 22 23 24 20 19 21 25 26 27 28 29 30 31 34 35 32
18 18 18 18 19 19 19 19 19 19 19 19 19 18 18 18 18 18 19 19 19 19 19 19 18 19 19 19 19 18 18 19 19 19 18 17 17 18 16 16 17 16 16 16 16 17 16 15 20 23 21 19 18 17 16 15 14 14 13 13 13 14 14 17 19 17 16 16 14 14 15 16 18 21 24 21 18 21 24 25 27 28 29 31 32 34 35 33
18 18 17 18 18 18 18 18 18 18 18 19 19 19 19 19 19 19 19 20 20 19 19 19 19 20 20 19 19 17 18 21 21 20 19 18 19 18 17 16 17 17 16 16 17 15 12 15 20 19 18 20 19 18 18 17 17 17 17 16 16 16 16 18 21 22 20 17 17 18 18 17 16 19 22 21 20 21 21 22 25 27 28 30 32 33 34 33
17 18 18 18 17 17 18 18 18 18 18 18 18 19 19 20 20 20 20 21 21 20 19 19 19 20 20 19 18 17 17 19 20 19 18 18 19 18 18 18 18 18 17 18 18 14 14 19 19 15 16 19 19 19 19 18 20 20 20 20 19 18 19 20 21 22 18 16 18 20 22 21 19 20 22 23 23 23 21 22 23 24 26 28 29 30 31 31
16 17 18 18 18 18 18 18 18 18 18 18 18 19 19 20 21 21 20 20 20 19 19 18 19 19 19 18 17 16 16 17 18 19 18 19 19 19 20 19 17 14 14 18 17 14 18 21 19 19 19 19 18 18 19 19 20 21 21 22 23 23 24 23 23 24 21 19 20 21 22 21 18 20 22 23 23 21 21 22 21 23 24 24 26 27 27 28
17 17 17 17 18 18 18 18 18 18 18 18 18 18 19 20 20 20 19 16 17 18 17 17 17 18 18 18 16 15 15 16 17 19 19 18 19 20 20 19 17 15 15 17 15 16 21 21 19 20 19 18 18 18 18 19 18 19 20 21 23 25 27 26 26 27 24 22 24 24 22 19 17 19 21 24 24 21 21 22 23 24 24 24 25 24 25 27
18 18 18 18 18 18 18 18 18 18 18 18 18 18 19 20 19 19 16 14 16 17 17 16 17 17 18 17 16 15 14 14 16 18 18 17 18 19 17 18 17 17 20 18 14 18 23 22 20 20 18 17 17 17 18 19 19 20 22 21 21 22 25 26 25 26 25 24 26 26 23 22 21 19 21 24 24 21 22 23 24 25 25 25 25 25 26 28
19 20 19 19 19 18 18 18 17 18 18 18 18 18 18 18 18 17 14 13 15 16 16 17 17 17 17 16 16 16 15 15 16 17 17 17 18 17 16 18 13 12 19 17 15 21 22 20 19 18 17 16 16 18 19 19 18 20 22 21 20 20 22 23 22 24 24 24 27 25 22 25 25 22 23 27 25 21 21 23 24 24 24 26 26 28 28 27
19 19 19 19 19 19 18 18 17 17 17 17 17 18 17 17 17 14 12 14 14 14 16 17 17 17 16 15 15 15 15 16 17 17 18 18 18 16 16 19 15 13 17 14 15 21 20 18 18 16 15 16 19 21 20 18 18 19 20 20 20 20 21 22 22 21 22 25 24 21 21 25 24 20 22 27 26 21 21 26 27 25 24 26 27 28 28 27
20 20 20 20 19 19 18 18 18 17 17 17 17 17 16 16 15 12 13 15 13 15 16 16 16 15 14 14 15 15 15 16 16 17 18 17 17 17 17 17 16 16 16 14 14 19 20 20 19 17 16 17 20 20 18 17 18 19 19 19 20 20 20 20 20 20 22 25 23 20 23 27 25 19 20 26 26 21 21 26 28 25 25 27 26 27 28 29
21 21 21 21 20 19 19 19 18 18 18 18 17 17 16 15 14 13 15 14 13 16 17 17 16 14 13 13 14 14 14 15 16 15 16 17 16 17 16 16 16 15 15 15 15 17 19 20 19 20 19 19 20 19 18 18 17 17 17 18 19 19 19 19 18 19 22 22 21 22 24 27 26 21 21 25 25 22 21 24 27 28 27 27 26 28 30 31
23 22 22 22 22 21 21 20 19 19 18 18 17 16 15 15 14 15 16 15 15 15 16 16 15 14 14 14 15 15 15 15 15 14 15 16 15 15 14 14 14 12 12 13 13 14 15 14 16 18 17 17 18 17 18 19 19 18 18 18 19 16 16 17 16 18 19 17 18 21 22 24 23 20 23 26 25 23 23 24 27 27 27 27 28 30 31 32
24 24 24 24 24 23 23 22 21 19 18 18 18 16 16 16 15 16 16 16 16 15 15 15 14 14 14 14 15 16 16 16 15 14 15 16 16 15 15 15 15 13 12 13 12 12 11 11 14 16 15 16 16 15 16 16 16 17 17 18 19 16 16 17 16 16 16 16 19 21 20 21 20 20 24 27 25 25 25 25 25 24 25 26 28 30 31 31
26 26 26 26 26 25 25 24 22 20 19 18 18 18 19 18 17 17 16 17 18 17 16 16 14 15 15 15 16 15 14 16 16 15 16 16 17 18 18 18 18 16 17 17 15 14 12 11 14 15 14 14 13 14 16 15 14 14 15 16 17 17 17 17 17 16 16 16 19 19 19 19 19 20 24 25 23 23 24 25 25 24 25 25 26 27 28 29
27 27 27 27 27 26 26 25 23 21 20 19 19 19 20 18 17 17 17 18 19 17 17 18 17 18 18 18 19 18 17 17 16 16 16 17 18 18 19 19 17 17 19 18 16 19 17 14 17 18 14 13 12 13 15 16 15 15 15 17 17 18 19 20 20 20 20 20 19 19 19 19 21 23 24 24 24 23 23 24 25 25 25 25 24 24 24 26
28 28 28 28 27 26 26 25 24 22 21 20 20 20 20 18 18 19 18 19 18 17 19 19 19 20 20 19 19 19 19 19 17 16 17 19 19 20 21 21 19 17 18 18 17 19 17 14 17 19 17 18 17 16 17 15 15 16 16 16 18 18 20 21 22 23 24 24 24 24 25 24 25 26 26 26 25 25 25 26 26 26 26 26 26 26 25 26
28 27 28 28 27 26 26 26 25 24 23 23 22 22 22 21 21 22 22 21 20 20 20 20 20 21 21 21 19 19 19 19 19 18 17 20 21 21 23 23 22 20 20 20 19 21 20 18 19 19 18 21 19 18 18 17 16 17 15 16 17 18 18 19 21 22 23 24 25 24 24 24 24 22 23 26 24 24 25 26 26 26 26 26 27 27 25 24
28 28 28 28 27 27 27 26 26 26 25 25 24 24 23 23 24 25 24 23 22 22 22 21 22 22 21 21 20 20 19 17 19 19 18 21 23 20 21 22 22 22 23 22 21 24 25 22 21 20 20 22 20 19 19 19 19 19 19 20 18 17 17 18 20 22 21 22 23 22 21 22 21 18 21 26 25 23 23 24 25 25 26 27 27 27 25 24
28 28 29 28 27 28 27 27 27 27 27 27 26 25 25 26 27 27 24 24 23 23 23 23 24 25 24 23 22 23 21 18 20 22 20 22 25 22 20 21 21 20 21 22 23 26 26 24 23 21 22 22 20 20 20 19 20 20 21 22 20 20 20 19 21 23 22 23 23 22 22 20 17 19 23 25 25 22 20 22 24 24 25 26 27 27 27 25
25 28 29 27 26 28 28 28 29 29 28 29 27 27 28 29 29 28 26 26 25 25 25 25 27 28 27 26 25 25 24 22 23 25 24 25 27 25 22 23 23 22 21 21 23 26 26 26 25 23 24 24 21 21 22 20 20 20 20 20 20 21 21 21 23 24 24 25 24 25 25 20 18 24 25 21 20 20 19 21 24 24 25 26 27 28 28 27
23 27 28 25 26 28 28 28 29 28 29 30 30 30 32 31 31 31 29 28 28 28 28 28 29 29 29 28 28 27 27 28 26 26 28 27 26 30 30 26 24 25 24 23 25 27 27 27 26 24 25 24 21 23 24 21 21 21 21 22 22 22 22 23 24 23 23 25 25 25 26 23 24 28 26 22 23 24 22 23 25 25 25 26 27 29 29 29
22 26 26 22 24 27 28 29 29 29 29 30 31 32 32 30 31 34 33 31 31 31 32 31 30 31 32 31 30 29 31 32 29 29 32 29 26 32 34 28 25 28 27 26 29 30 28 27 27 26 26 25 25 27 26 24 24 25 26 27 26 26 26 26 27 26 27 27 27 28 29 29 29 29 27 27 30 31 30 29 29 29 28 27 27 29 31 33
22 25 24 21 23 25 26 28 29 30 29 30 32 33 32 31 32 35 34 33 34 35 36 35 33 34 35 34 34 33 33 35 33 32 33 31 31 35 34 30 29 31 30 30 33 33 29 29 30 30 30 30 30 31 31 29 29 30 30 31 31 30 31 31 31 31 32 30 30 31 31 32 33 31 30 31 32 33 33 32 32 31 31 31 31 31 33 35
21 22 23 22 23 24 25 26 28 29 29 31 33 33 34 34 33 34 34 35 36 36 37 37 36 38 37 37 37 35 36 38 37 35 35 35 37 37 34 32 32 34 34 33 34 34 31 30 33 33 33 32 31 30 31 31 31 32 32 32 33 33 32 32 31 33 34 33 33 34 34 34 35 33 31 31 31 31 31 32 32 32 33 35 36 35 35 37
22 22 22 22 23 24 25 25 25 26 29 30 30 31 34 34 34 34 34 36 36 36 37 37 38 39 38 38 39 37 38 40 38 38 38 39 40 39 36 35 35 37 37 35 35 36 35 34 35 35 34 34 32 28 27 27 29 32 31 31 34 34 31 30 32 34 35 34 35 38 38 36 36 36 35 34 34 34 34 35 35 36 38 38 38 38 39 39
25 25 23 22 22 24 26 26 25 27 29 28 27 30 33 32 33 33 33 36 37 35 36 37 38 38 37 38 40 38 38 40 39 39 40 41 41 41 39 37 38 40 39 37 37 38 38 37 37 38 38 37 34 30 30 30 32 34 33 33 35 34 32 33 36 37 36 36 37 38 37 36 37 38 38 39 38 36 35 35 34 36 40 40 40 40 41 42
27 27 26 25 24 25 26 25 26 28 29 28 28 31 31 31 34 34 31 35 36 33 34 36 36 37 36 37 38 37 37 38 39 39 40 40 40 42 41 38 39 40 39 38 39 39 39 40 39 39 39 40 39 37 37 37 38 40 41 39 37 38 38 38 37 36 37 40 40 37 36 37 37 35 34 34 34 31 31 32 31 32 35 37 39 40 40 41
27 27 27 27 27 28 28 25 25 27 28 27 30 32 30 31 35 35 32 33 34 33 34 35 35 35 36 36 37 37 36 37 38 37 37 37 38 40 41 39 40 40 39 39 41 39 39 40 39 39 38 38 38 39 39 40 42 44 44 43 41 42 43 42 40 37 36 38 39 38 39 40 39 38 35 33 33 33 33 33 32 32 33 34 36 36 36 36
28 28 27 28 29 30 30 28 28 28 28 28 30 30 29 31 33 34 32 31 32 33 33 34 34 35 36 36 36 36 34 34 35 33 32 33 34 35 36 34 35 36 36 38 39 39 39 39 39 39 39 39 38 39 39 41 43 45 46 45 44 43 44 44 43 40 37 35 36 37 38 39 39 40 40 40 40 40 39 37 35 35 35 36 36 35 35 35
28 29 28 29 29 29 30 30 30 30 30 30 31 31 30 30 31 32 31 30 31 32 31 31 32 33 33 33 34 35 34 33 34 33 32 32 32 32 32 31 32 32 32 33 34 34 35 36 37 38 39 41 41 40 40 41 43 45 45 45 45 44 44 44 44 42 40 38 38 39 40 40 39 39 41 42 43 43 42 41 39 38 38 38 38 38 38 39
26 27 28 29 29 29 30 30 30 31 33 33 33 33 32 33 33 32 32 31 32 32 31 30 32 32 29 30 34 35 33 33 35 35 35 34 34 33 33 34 35 33 32 33 33 33 33 34 35 36 38 40 39 38 40 43 45 46 45 46 46 45 43 42 42 43 42 42 41 41 42 42 41 42 43 43 44 43 42 42 42 42 43 43 43 40 40 42
24 24 25 26 27 27 29 29 29 31 33 34 34 34 35 36 36 36 35 35 36 36 35 33 34 34 31 32 35 34 32 33 35 35 35 36 37 37 37 38 39 38 36 36 36 36 35 34 35 36 38 40 39 38 42 45 46 45 44 43 43 44 43 43 44 44 43 43 43 44 44 43 43 47 46 44 43 43 43 44 44 42 42 44 44 41 41 41
Wind_Direction
245 246 247 249 250 252 254 256 259 263 267 271 275 277 278 278 278 277 275 273 270 267 264 261 258 254 252 250 249 249 249 248 246 245 245 246 247 247 248 250 252 254 255 256 256 256 258 257 258 258 258 258 256 256 254 251 250 246 244 241 240 239 242 245 241 240 236 228 239 252 252 246 248 249 244 244 245 244 245 243 243 243 242 240 240 246 243 236
247 248 249 251 252 254 256 259 263 266 271 274 277 279 280 280 279 278 277 275 272 269 266 262 258 254 251 249 248 248 248 247 245 245 246 245 246 247 248 249 251 253 254 255 255 255 257 257 257 258 258 258 257 258 257 253 251 249 246 242 240 238 238 241 238 237 239 236 243 253 255 248 246 248 245 244 247 246 245 246 245 244 243 243 242 243 237 233
248 249 251 252 253 256 258 261 265 269 273 276 278 279 280 280 280 279 278 276 274 271 268 264 260 256 252 249 248 248 248 248 247 247 247 247 247 248 248 249 250 252 253 255 255 254 255 257 257 257 258 258 258 259 259 255 253 250 247 244 241 238 237 241 243 244 245 243 246 252 253 251 248 245 246 246 246 246 245 246 247 244 243 242 243 241 235 235
249 251 252 254 255 257 259 262 266 270 273 276 277 278 279 279 279 279 278 277 275 273 270 266 263 259 254 251 250 249 250 250 249 249 250 249 249 249 249 250 250 250 252 253 254 254 255 257 257 257 258 259 258 258 259 257 253 250 248 245 243 241 241 245 249 246 244 243 245 250 252 255 251 245 246 246 246 247 244 243 244 246 243 238 239 239 236 238
251 252 253 254 255 257 259 263 267 270 272 274 275 276 277 278 278 279 279 278 276 274 271 268 265 261 258 254 253 252 252 252 251 251 251 251 250 250 250 250 250 249 250 251 253 254 255 257 258 258 258 258 259 257 257 256 251 252 253 246 244 246 248 248 249 246 245 245 247 250 252 251 250 248 247 244 247 247 243 242 243 245 244 239 237 234 233 237
253 253 253 253 254 256 259 262 266 268 270 271 272 273 275 277 279 281 282 281 278 276 274 272 268 265 262 259 258 256 255 255 253 251 251 251 251 250 250 249 249 248 248 250 252 254 256 258 258 258 258 257 258 255 253 254 252 253 253 247 245 249 250 249 249 249 247 246 248 249 250 250 250 251 247 242 244 245 246 249 249 248 248 244 239 234 233 235
253 252 252 252 253 256 258 261 264 265 266 267 268 269 272 276 280 283 286 285 283 281 279 276 273 269 267 264 261 259 257 257 255 253 252 251 251 250 250 250 248 247 248 250 253 256 258 259 259 258 257 255 254 252 251 253 251 249 249 247 247 249 250 250 250 251 248 247 248 248 250 252 251 250 247 244 244 245 250 255 256 254 252 243 237 236 235 235
252 251 250 251 252 254 256 259 261 263 263 264 265 268 271 275 280 284 287 289 288 286 283 280 277 274 271 267 263 261 259 258 257 255 253 252 251 250 250 249 248 247 249 252 254 257 259 258 258 255 253 252 251 251 251 251 247 244 246 247 247 247 249 250 250 250 249 248 248 250 252 253 251 251 251 249 248 247 249 254 256 255 254 247 238 232 231 232
251 250 250 251 251 252 254 257 260 261 262 263 265 268 271 274 277 281 285 290 291 290 287 282 279 276 272 268 265 263 261 259 258 256 255 253 251 249 248 247 246 247 249 252 255 256 257 256 253 251 250 249 250 250 249 248 246 242 242 246 248 247 248 248 249 250 250 249 250 251 253 255 254 254 256 253 249 247 248 251 252 254 256 253 239 227 228 236
251 250 250 250 249 250 252 256 259 260 261 262 265 267 270 272 275 278 282 286 290 292 290 285 279 275 271 269 267 265 263 260 258 256 254 251 249 247 245 245 245 246 248 250 252 253 254 253 251 250 248 248 247 247 245 245 246 245 244 247 248 247 248 248 249 250 250 250 251 252 255 256 256 257 258 253 249 246 246 247 248 251 251 245 235 226 229 237
250 249 249 248 246 247 250 255 258 259 261 262 264 266 268 271 273 275 278 282 286 289 290 288 282 275 271 269 267 267 264 261 259 257 254 251 248 246 245 244 244 245 246 248 249 251 252 251 250 248 247 248 247 247 246 244 248 249 247 247 248 249 249 248 248 248 250 251 249 251 254 254 256 259 255 253 254 249 245 249 248 246 243 235 228 227 234 240
249 248 248 246 244 245 248 253 256 258 259 261 263 265 267 269 271 274 276 279 282 284 285 286 285 281 276 270 268 267 265 264 263 259 256 252 248 247 246 245 245 245 245 247 247 249 251 250 249 247 248 249 247 247 247 247 250 250 248 250 250 251 252 250 249 247 247 249 247 245 250 257 258 254 253 255 260 256 250 252 250 248 245 233 226 231 243 248
247 247 246 245 243 243 246 250 253 256 258 261 263 265 266 268 270 271 273 276 279 281 282 283 283 283 280 275 271 267 265 265 264 262 257 254 250 247 247 245 246 246 245 246 246 248 251 252 251 249 249 248 248 249 250 251 251 251 251 252 252 255 258 252 248 247 245 245 246 243 248 262 258 247 254 254 255 258 255 254 255 251 240 226 228 239 248 248
246 245 245 243 242 242 244 247 251 255 257 261 262 265 266 268 269 270 272 274 277 279 280 281 281 281 280 279 276 272 268 264 263 263 260 257 253 250 249 247 248 247 247 246 246 248 250 254 255 252 250 248 249 249 250 251 250 254 253 252 254 258 263 256 248 244 245 245 244 239 232 235 244 249 254 249 247 253 254 255 256 254 246 236 238 245 250 250
245 245 245 243 242 241 243 245 249 254 257 260 262 265 266 266 267 268 271 273 276 278 279 280 280 279 277 276 276 274 271 267 265 263 260 259 257 255 253 250 250 248 248 248 246 247 247 253 253 251 249 247 249 247 249 252 251 254 250 254 253 209 244 259 255 242 241 246 243 233 218 212 243 255 258 247 241 242 248 254 253 257 253 240 241 243 243 246
245 245 245 244 242 241 242 244 247 252 255 259 262 264 265 265 267 268 271 273 276 279 279 280 279 278 276 275 275 273 272 270 267 264 262 261 259 258 256 253 253 251 251 250 248 248 246 249 249 248 246 242 243 240 244 252 256 256 240 241 230 191 240 267 262 242 236 246 247 227 200 190 239 252 258 253 237 232 239 251 253 256 247 235 244 242 236 246
245 245 245 244 243 242 242 243 246 250 254 258 260 263 265 266 267 268 270 273 276 279 280 281 281 278 277 277 274 272 272 270 268 266 265 264 261 260 258 257 257 256 256 254 252 250 246 248 246 245 244 237 237 233 236 242 256 265 238 223 214 187 219 269 271 248 238 244 250 229 201 194 232 247 255 253 232 228 232 242 251 253 250 248 248 240 238 250
246 245 245 244 243 242 242 243 245 248 252 256 259 262 265 266 268 268 270 272 275 277 279 280 280 278 277 278 276 275 273 270 269 267 265 264 262 262 261 259 259 259 259 257 255 252 249 249 245 244 242 234 231 208 191 207 213 246 235 226 226 195 202 242 271 256 245 235 224 223 207 200 228 247 249 246 230 229 233 238 246 248 251 251 248 246 249 251
245 245 245 244 243 242 242 243 245 247 250 254 258 262 264 267 268 269 269 271 274 276 278 279 278 277 278 278 277 276 274 273 272 268 266 264 262 261 260 258 258 257 257 256 255 252 249 248 245 244 239 234 230 209 205 218 213 231 233 221 225 213 212 237 257 253 258 245 219 226 218 203 228 250 244 248 241 236 237 240 244 246 248 250 251 254 254 250
245 245 246 245 243 242 242 243 245 247 250 253 257 261 265 267 268 269 270 271 273 275 277 276 276 277 277 276 275 274 274 274 272 269 267 265 263 261 258 257 256 254 254 253 254 254 251 249 245 241 240 237 235 227 227 236 237 246 246 228 222 216 207 226 253 254 259 255 229 228 227 210 227 244 238 251 256 242 240 243 244 243 244 246 249 253 253 250
246 245 245 245 244 243 243 244 245 248 251 254 257 262 265 267 269 271 273 273 273 275 275 275 275 275 274 273 272 273 273 271 270 269 268 267 266 263 260 258 256 254 253 253 253 254 253 252 246 243 246 243 237 235 234 235 239 244 242 237 235 226 210 222 250 261 262 256 234 233 244 228 231 244 245 256 264 249 244 247 246 245 244 244 245 250 252 251
247 246 245 245 245 245 246 246 248 250 253 256 260 263 265 267 269 271 273 274 273 273 273 274 273 272 272 272 272 272 271 269 268 268 268 268 266 264 262 260 258 255 253 253 253 255 257 257 254 252 251 247 240 239 240 237 237 240 237 234 233 227 223 238 252 259 264 258 238 243 258 245 237 247 253 257 256 251 248 248 248 247 246 246 246 248 251 252
248 246 245 245 245 246 248 250 251 253 256 259 263 266 267 268 270 272 273 273 272 271 271 272 271 270 271 271 272 271 269 269 269 267 268 267 265 265 264 261 258 258 255 253 251 251 253 253 258 261 254 249 246 243 243 243 240 238 236 235 233 229 229 245 255 253 257 255 243 248 258 255 253 258 261 259 253 252 252 249 249 248 247 249 249 249 252 253
249 247 245 244 245 246 249 251 253 256 258 261 265 268 270 272 273 274 274 273 273 272 269 269 268 268 270 271 271 269 267 270 273 271 268 266 264 263 261 258 259 262 259 253 250 247 248 249 254 261 256 252 251 248 247 247 247 245 241 237 237 240 234 234 244 251 255 256 250 253 258 260 265 269 268 263 256 252 251 251 251 250 250 250 250 250 253 254
247 246 246 245 246 247 250 252 255 258 260 263 265 269 271 273 274 274 273 274 273 270 267 266 266 267 269 270 271 269 267 267 267 266 263 262 262 259 258 258 258 262 261 255 248 243 252 255 256 258 257 256 255 253 251 248 249 251 250 244 239 244 245 240 245 253 258 262 259 255 257 261 265 263 258 257 258 253 250 253 254 254 254 254 254 254 254 254
244 244 245 246 247 249 251 254 256 258 261 264 266 269 271 272 273 272 272 272 271 269 267 266 265 267 268 269 270 269 268 266 265 265 261 258 256 256 259 259 253 247 252 258 251 244 255 259 259 261 260 259 258 257 256 252 249 251 251 247 241 243 249 249 251 254 255 259 261 257 256 258 257 254 251 253 259 261 258 256 253 254 256 256 257 258 258 258
245 245 246 248 250 251 254 257 259 260 262 264 266 268 269 270 270 268 268 264 263 266 268 266 266 266 266 267 267 264 262 264 267 266 263 259 256 255 256 257 254 250 250 255 253 251 257 261 260 262 262 260 258 253 255 254 247 246 248 248 246 245 250 254 255 255 254 253 255 257 258 256 252 252 257 257 258 262 262 258 255 254 252 251 251 253 254 257
248 248 249 250 252 254 256 259 261 263 265 265 266 266 266 267 267 265 263 256 256 262 265 265 264 264 263 264 264 260 255 255 260 264 263 260 257 253 250 249 246 252 255 251 249 253 259 263 261 259 258 257 252 246 246 249 243 243 248 250 248 248 251 255 255 255 256 254 255 258 260 258 253 251 256 259 258 258 258 258 257 252 249 248 247 249 252 255
250 249 250 251 253 255 257 260 262 264 266 267 268 266 265 263 262 261 253 250 255 262 263 262 262 263 264 264 261 259 256 253 254 258 260 259 257 252 247 249 241 243 257 255 251 259 262 265 265 261 256 250 247 247 246 246 245 245 249 250 250 252 254 256 258 258 258 257 256 258 259 259 257 252 255 261 261 253 249 253 254 250 249 251 249 249 251 251
251 250 249 250 252 255 257 260 262 265 266 268 268 267 264 259 258 254 247 247 253 258 259 260 262 262 262 260 261 260 258 257 255 257 260 259 260 256 251 255 253 249 259 259 251 257 260 260 263 260 254 249 249 252 250 246 247 247 249 251 254 256 256 257 258 257 255 257 259 257 256 258 259 256 257 262 261 248 239 247 253 253 251 253 252 251 250 248
252 251 251 251 253 255 257 261 264 266 267 267 266 264 261 258 253 246 245 248 251 252 254 257 259 258 255 256 258 256 254 257 259 260 262 261 260 260 258 260 259 255 257 257 252 256 259 261 263 257 251 250 253 253 251 248 246 246 247 250 254 255 257 257 257 254 255 260 263 258 255 258 260 255 250 253 254 248 242 248 256 259 256 254 252 250 250 249
254 254 255 255 257 259 261 263 265 266 266 266 264 260 257 254 248 247 249 249 248 251 253 255 255 252 249 252 253 254 256 259 261 260 261 261 259 258 256 255 255 253 251 252 253 256 260 264 263 259 254 252 254 257 256 251 247 246 246 248 250 252 254 255 251 253 258 261 260 256 256 258 259 253 248 249 253 255 254 255 258 260 259 256 251 248 249 249
255 256 257 258 260 262 263 264 265 265 264 262 260 256 252 249 244 245 249 247 244 246 247 248 248 247 245 247 250 252 256 256 257 257 256 258 259 256 254 250 248 247 246 245 245 249 258 265 262 262 265 261 254 251 251 248 245 243 243 245 245 243 245 249 249 252 259 261 256 252 252 257 259 255 254 256 256 257 258 258 259 259 258 256 253 250 249 248
257 257 257 259 261 262 263 264 264 264 262 259 256 252 248 246 243 242 245 248 246 242 243 244 243 245 242 241 245 247 251 253 253 255 255 253 253 254 254 254 250 245 245 245 243 244 248 256 257 257 264 265 252 242 245 248 250 245 242 244 243 239 238 243 248 247 245 247 251 252 254 259 260 253 255 259 258 256 259 262 262 261 259 257 254 252 249 248
258 258 257 258 260 261 262 262 262 261 259 256 253 249 248 246 244 243 242 247 248 241 242 244 241 245 245 244 246 245 247 254 254 251 253 251 249 249 250 253 252 244 244 245 243 245 244 245 251 248 249 257 253 249 250 252 257 253 244 244 247 246 243 242 245 246 245 245 251 259 263 265 264 261 262 265 264 262 261 263 264 263 261 259 254 251 249 247
258 258 258 258 258 259 259 260 260 259 257 255 252 249 248 243 239 240 239 243 246 241 242 244 243 244 247 249 249 245 244 250 254 252 255 255 250 249 249 250 251 247 243 239 237 244 243 235 246 250 252 257 256 255 256 250 250 251 248 246 244 244 246 248 251 253 254 256 258 263 268 270 271 271 270 266 264 264 263 261 261 261 260 259 256 253 251 250
258 257 257 257 256 255 256 256 257 256 254 254 252 250 249 244 241 242 243 244 246 244 242 244 246 244 245 249 251 249 246 247 252 252 252 256 253 250 252 253 251 249 245 241 242 248 246 239 249 258 258 257 255 254 255 250 246 248 252 250 244 244 249 252 255 256 258 260 260 263 267 269 268 268 269 267 265 264 262 260 257 255 255 256 256 256 254 252
260 258 256 256 255 253 252 252 253 253 252 253 252 251 251 248 245 245 245 245 244 245 242 240 245 246 243 246 250 252 249 243 249 250 243 252 256 251 253 254 251 249 248 247 249 251 250 250 256 259 257 258 258 256 258 258 255 250 250 252 252 254 255 254 256 259 260 262 263 264 265 265 266 261 261 268 270 265 259 257 256 253 252 252 252 255 255 252
261 259 257 255 254 253 251 250 250 249 250 252 252 252 252 250 248 247 245 245 242 243 243 239 242 245 244 245 247 251 251 241 244 250 244 249 256 252 251 254 253 251 250 249 250 251 253 254 254 255 257 258 259 259 260 261 259 253 249 251 254 256 256 257 258 259 262 263 263 264 263 264 267 260 258 267 271 263 252 252 256 255 252 249 248 250 252 251
262 261 258 255 253 253 252 250 248 248 249 251 250 249 250 251 252 250 245 244 242 240 242 240 241 244 245 245 245 249 253 247 245 252 253 251 255 256 253 254 255 254 252 251 253 254 256 255 253 255 259 261 260 258 255 253 253 254 254 254 253 253 254 255 256 258 262 264 264 264 263 261 257 258 264 268 263 258 256 256 258 256 253 249 246 246 247 249
262 261 260 257 252 252 252 250 250 249 248 250 249 247 249 251 253 252 247 244 245 242 242 242 243 246 246 245 246 247 250 251 248 250 253 255 260 260 254 252 257 258 256 256 257 256 256 256 254 253 256 260 260 256 254 254 254 254 257 258 256 254 254 255 256 257 259 261 262 263 264 261 256 259 264 262 254 259 267 266 262 259 254 250 246 245 245 246
262 262 263 260 254 252 250 250 250 250 249 250 250 248 250 251 252 253 250 246 246 246 245 244 244 246 247 247 249 248 249 252 251 251 253 255 258 260 258 256 260 261 261 261 261 259 258 260 259 256 255 255 257 258 259 259 258 258 258 259 259 257 258 260 261 258 256 257 259 260 262 263 262 262 263 261 259 263 267 268 266 263 259 254 250 250 248 247
263 263 264 260 256 253 251 249 249 249 249 250 250 250 250 250 251 253 254 251 249 248 248 247 246 247 248 248 249 250 252 253 253 253 256 257 255 258 262 263 263 264 263 262 263 262 262 264 263 260 259 257 257 262 263 261 261 260 258 258 259 257 257 259 259 259 257 257 259 261 263 265 266 266 264 263 264 265 265 267 267 266 264 260 258 257 253 249
267 265 264 260 257 256 252 250 249 249 248 248 250 252 252 251 250 252 254 254 252 251 250 250 250 249 249 250 250 251 253 255 254 254 256 258 258 259 262 264 264 265 263 261 264 264 264 264 263 262 262 262 262 265 267 267 266 264 261 260 257 255 255 256 257 259 258 256 257 259 260 263 265 265 264 264 264 263 264 266 265 265 265 265 264 262 257 252
269 266 264 260 258 257 254 252 251 251 251 249 250 252 253 253 252 251 253 254 253 253 253 253 252 251 252 253 253 252 253 255 257 257 256 258 260 260 261 263 263 263 263 263 264 264 262 262 263 263 263 263 264 263 262 263 264 265 266 264 261 258 257 256 255 255 255 254 254 255 256 258 261 262 264 265 265 265 265 267 267 264 264 264 264 264 261 256
268 266 265 263 259 257 256 253 251 249 250 251 250 251 253 255 255 252 252 255 254 253 255 255 254 254 254 254 255 254 254 256 257 258 258 259 261 262 262 262 263 262 263 263 262 262 262 261 261 262 262 262 261 257 255 255 257 259 260 262 265 266 262 258 254 254 255 254 252 252 253 256 259 262 264 265 265 265 266 266 266 263 261 260 261 262 262 259
266 265 265 263 260 258 256 254 253 251 253 254 253 252 252 253 256 254 251 254 256 256 256 257 257 256 256 255 256 255 255 256 257 257 258 259 261 262 261 261 262 262 262 261 260 260 261 260 260 261 262 262 261 259 258 257 257 259 259 258 261 263 262 261 259 257 257 256 254 252 250 252 255 259 262 263 262 260 261 261 261 261 261 259 259 260 260 259
266 265 264 262 260 259 258 256 255 255 255 254 253 254 253 252 255 257 254 254 257 257 256 257 258 258 258 257 257 257 256 257 257 257 258 259 260 262 263 263 261 260 260 260 260 259 260 261 261 261 261 261 262 262 261 260 258 259 260 259 259 260 262 264 264 259 257 259 260 257 253 251 251 251 254 257 258 257 258 259 258 259 261 259 257 258 259 259
264 264 263 262 261 260 260 258 255 255 255 254 254 255 254 253 254 257 256 255 257 257 257 258 259 259 259 258 258 258 257 256 255 254 255 256 256 257 260 262 261 260 259 260 261 262 261 260 260 260 259 258 259 259 259 260 260 260 260 261 261 261 261 263 264 262 260 259 260 260 258 255 252 250 250 252 256 258 259 258 257 258 261 259 257 257 258 259
262 262 261 261 261 260 260 258 256 255 255 254 253 253 253 253 254 256 256 255 255 256 256 258 259 258 259 259 258 257 255 254 253 252 251 252 253 254 256 258 259 261 262 263 264 264 262 261 261 261 260 258 257 257 257 259 259 260 261 262 262 261 261 263 264 265 263 261 258 258 258 256 255 255 253 253 255 257 258 259 259 259 260 262 261 260 258 259
262 261 260 260 260 259 259 258 256 255 254 253 253 254 253 253 253 254 255 254 254 255 255 255 257 259 259 258 256 255 255 255 255 255 254 254 254 255 256 257 258 261 264 265 266 266 265 264 263 262 261 260 260 260 261 260 259 259 261 263 264 264 263 263 264 263 263 262 259 258 259 259 260 259 257 256 257 258 259 260 261 261 261 262 263 261 260 259
263 262 261 260 260 259 258 257 256 254 254 254 254 255 254 254 254 254 255 255 255 255 256 254 255 257 256 255 255 255 255 256 256 257 258 257 257 257 258 259 260 260 262 264 265 267 268 267 265 264 264 265 264 263 262 262 262 263 264 265 266 265 264 263 263 263 263 263 262 261 261 262 262 260 260 260 260 260 260 258 258 258 259 260 260 259 259 259